Weather History for Quakertown, PA

Change the Weather History Date:

Wednesday, January 23, 2013

  Actual Average (KABE) Record (KABE)
Temperature  
Mean Temperature 12 °F 28 °F  
Max Temperature 19 °F 36 °F 62 °F (1999)
Min Temperature 6 °F 19 °F -9 °F (1961)
Degree Days  
Heating Degree Days 52 37  
Month to date heating degree days 859  
Since 1 July heating degree days 3054  
Cooling Degree Days 0 0  
Month to date cooling degree days 0  
Year to date cooling degree days 0  
Moisture  
Dew Point 1 °F    
Average Humidity 61    
Maximum Humidity 92    
Minimum Humidity 42    
Precipitation  
Precipitation 0.00 in 0.10 in 1.39 in (1983)
Month to date precipitation 2.24  
Year to date precipitation 2.24  
Snow  
Snow 0.00 in 0.30 in 7.70 in (1966)
Month to date snowfall 7.2  
Since 1 July snowfall 13.1  
Snow Depth -    
Sea Level Pressure  
Sea Level Pressure 30.20 in    
Wind  
Wind Speed 0 mph (North)    
Max Wind Speed 0 mph    
Max Gust Speed -    
Visibility 10 miles    
Events      
T = Trace of Precipitation, MM = Missing Value Source: NWS Daily Summary

Daily Weather History Graph

Daily Weather History Graph

Search for Another Location

Airport:

Trip Planner

Search our weather history database for the weather conditions in past years. The results will help you decide how hot, cold, wet, or windy it might be!

Date:

Astronomy

Jan. 23, 2013 Rise Set
Actual Time 7:18 AM EST 5:09 PM EST
Civil Twilight 6:48 AM EST 5:38 PM EST
Nautical Twilight 6:15 AM EST 6:11 PM EST
Astronomical Twilight 5:43 AM EST 6:44 PM EST
Moon 2:17 PM EST (1/23) 4:27 AM EST (1/23)
Length of Visible Light 10h 49m
Length of Day
9h 51m
Waxing Gibbous, 89% of the Moon is Illuminated
Jan 23
Waxing Gibbous
Jan 26
Full
Feb 3
Last Quarter
Feb 10
New
Feb 17
First Quarter

Hourly Weather History & Observations

Time (EST) Temp. Dew Point Humidity Pressure Visibility Wind Dir Wind Speed Gust Speed Precip Events Conditions
12:15 AM 10.4 °F -4.0 °F 52% 30.21 in 10.0 mi Calm Calm - N/A   Clear
12:35 AM 10.4 °F -2.2 °F 57% 30.20 in 10.0 mi Calm Calm - N/A   Clear
12:55 AM 10.4 °F -2.2 °F 57% 30.20 in 10.0 mi Calm Calm - N/A   Clear
1:15 AM 10.4 °F -4.0 °F 52% 30.21 in 10.0 mi Calm Calm - N/A   Clear
1:35 AM 10.4 °F -2.2 °F 57% 30.21 in 10.0 mi Calm Calm - N/A   Clear
1:55 AM 10.4 °F -2.2 °F 57% 30.21 in 10.0 mi Calm Calm - N/A   Clear
2:15 AM 10.4 °F -2.2 °F 57% 30.22 in 10.0 mi Calm Calm - N/A   Clear
2:35 AM 10.4 °F -2.2 °F 57% 30.22 in 10.0 mi Calm Calm - N/A   Clear
2:55 AM 10.4 °F -2.2 °F 57% 30.22 in 10.0 mi Calm Calm - N/A   Clear
3:15 AM 10.4 °F -2.2 °F 57% 30.22 in 10.0 mi Calm Calm - N/A   Clear
3:35 AM 10.4 °F -2.2 °F 57% 30.21 in 10.0 mi Calm Calm - N/A   Clear
3:55 AM 10.4 °F -2.2 °F 57% 30.21 in 10.0 mi Calm Calm - N/A   Clear
4:15 AM 10.4 °F -2.2 °F 57% 30.21 in 10.0 mi Calm Calm - N/A   Clear
4:35 AM 10.4 °F -2.2 °F 57% 30.22 in 10.0 mi Calm Calm - N/A   Clear
4:55 AM 10.4 °F -2.2 °F 57% 30.21 in 10.0 mi Calm Calm - N/A   Clear
5:15 AM 10.4 °F -2.2 °F 57% 30.22 in 10.0 mi Calm Calm - N/A   Clear
5:35 AM 10.4 °F -2.2 °F 57% 30.22 in 10.0 mi Calm Calm - N/A   Clear
5:55 AM 8.6 °F -2.2 °F 62% 30.22 in 10.0 mi Calm Calm - N/A   Clear
6:15 AM 8.6 °F -2.2 °F 62% 30.22 in 10.0 mi Calm Calm - N/A   Clear
6:35 AM 8.6 °F -2.2 °F 62% 30.23 in 10.0 mi Calm Calm - N/A   Clear
6:55 AM 8.6 °F -2.2 °F 62% 30.23 in 10.0 mi Calm Calm - N/A   Clear
7:15 AM 8.6 °F -0.4 °F 67% 30.23 in 9.0 mi Calm Calm - N/A   Clear
7:35 AM 8.6 °F -0.4 °F 67% 30.23 in 10.0 mi Calm Calm - N/A   Clear
7:55 AM 10.4 °F -0.4 °F 62% 30.23 in 10.0 mi Calm Calm - N/A   Clear
8:15 AM 10.4 °F -0.4 °F 62% 30.24 in 10.0 mi Calm Calm - N/A   Clear
8:35 AM 10.4 °F -0.4 °F 62% 30.24 in 10.0 mi Calm Calm - N/A   Clear
8:55 AM 12.2 °F -0.4 °F 57% 30.25 in 10.0 mi Calm Calm - N/A   Clear
9:15 AM 12.2 °F -0.4 °F 57% 30.25 in 10.0 mi Calm Calm - N/A   Clear
9:35 AM 14.0 °F -0.4 °F 53% 30.25 in 10.0 mi Calm Calm - N/A   Clear
9:55 AM 14.0 °F -0.4 °F 53% 30.26 in 10.0 mi Calm Calm - N/A   Clear
10:15 AM 15.8 °F -0.4 °F 49% 30.26 in 10.0 mi Calm Calm - N/A   Clear
10:35 AM 15.8 °F -0.4 °F 49% 30.25 in 10.0 mi Calm Calm - N/A   Partly Cloudy
10:50 AM 15.8 °F -0.4 °F 49% 30.25 in 10.0 mi Calm Calm - N/A   Scattered Clouds
11:15 AM 15.8 °F -2.2 °F 45% 30.24 in 10.0 mi Calm Calm - N/A   Scattered Clouds
11:35 AM 15.8 °F -0.4 °F 49% 30.23 in 10.0 mi Calm Calm - N/A   Mostly Cloudy
11:55 AM 15.8 °F -0.4 °F 49% 30.21 in 10.0 mi Calm Calm - N/A   Mostly Cloudy
12:15 PM 15.8 °F -0.4 °F 49% 30.20 in 10.0 mi Calm Calm - N/A   Mostly Cloudy
12:35 PM 17.6 °F -0.4 °F 45% 30.18 in 10.0 mi Calm Calm - N/A   Mostly Cloudy
12:55 PM 17.6 °F -0.4 °F 45% 30.18 in 10.0 mi Calm Calm - N/A   Mostly Cloudy
1:15 PM 15.8 °F -0.4 °F 49% 30.18 in 10.0 mi Calm Calm - N/A   Mostly Cloudy
1:35 PM 17.6 °F -0.4 °F 45% 30.17 in 10.0 mi Calm Calm - N/A   Mostly Cloudy
1:55 PM 17.6 °F -0.4 °F 45% 30.17 in 10.0 mi Calm Calm - N/A   Mostly Cloudy
2:15 PM 15.8 °F -0.4 °F 49% 30.17 in 10.0 mi Calm Calm - N/A   Mostly Cloudy
2:35 PM 15.8 °F 1.4 °F 53% 30.18 in 10.0 mi Calm Calm - N/A   Mostly Cloudy
2:55 PM 19.4 °F -0.4 °F 42% 30.17 in 10.0 mi Calm Calm - N/A   Mostly Cloudy
3:15 PM 17.6 °F 1.4 °F 49% 30.18 in 10.0 mi Calm Calm - N/A   Unknown
3:35 PM 15.8 °F -0.4 °F 49% 30.18 in 10.0 mi Calm Calm - N/A   Clear
3:55 PM 15.8 °F -0.4 °F 49% 30.18 in 10.0 mi Calm Calm - N/A   Scattered Clouds
4:15 PM 15.8 °F -0.4 °F 49% 30.17 in 10.0 mi Calm Calm - N/A   Scattered Clouds
4:30 PM 15.8 °F 1.4 °F 53% 30.17 in 10.0 mi Calm Calm - N/A   Mostly Cloudy
4:55 PM 15.8 °F 1.4 °F 53% 30.18 in 10.0 mi Calm Calm - N/A   Clear
5:15 PM 15.8 °F 1.4 °F 53% 30.18 in 10.0 mi Calm Calm - N/A   Partly Cloudy
5:35 PM 14.0 °F 3.2 °F 62% 30.18 in 10.0 mi Calm Calm - N/A   Clear
5:55 PM 14.0 °F 3.2 °F 62% 30.19 in 10.0 mi Calm Calm - N/A   Clear
6:15 PM 14.0 °F 3.2 °F 62% 30.19 in 10.0 mi Calm Calm - N/A   Clear
6:35 PM 14.0 °F 3.2 °F 62% 30.19 in 10.0 mi Calm Calm - N/A   Clear
6:55 PM 12.2 °F 5.0 °F 73% 30.18 in 10.0 mi Calm Calm - N/A   Clear
7:15 PM 10.4 °F 5.0 °F 79% 30.18 in 10.0 mi Calm Calm - N/A   Clear
7:35 PM 10.4 °F 5.0 °F 79% 30.18 in 10.0 mi Calm Calm - N/A   Clear
7:55 PM 8.6 °F 5.0 °F 85% 30.17 in 10.0 mi Calm Calm - N/A   Clear
8:15 PM 8.6 °F 5.0 °F 85% 30.17 in 10.0 mi Calm Calm - N/A   Clear
8:35 PM 8.6 °F 5.0 °F 85% 30.16 in 10.0 mi Calm Calm - N/A   Clear
8:55 PM 8.6 °F 5.0 °F 85% 30.16 in 10.0 mi Calm Calm - N/A   Clear
9:15 PM 8.6 °F 5.0 °F 85% 30.17 in 10.0 mi Calm Calm - N/A   Clear
9:35 PM 8.6 °F 5.0 °F 85% 30.17 in 10.0 mi Calm Calm - N/A   Clear
9:55 PM 6.8 °F 5.0 °F 92% 30.17 in 10.0 mi Calm Calm - N/A   Scattered Clouds
10:15 PM 8.6 °F 5.0 °F 85% 30.17 in 10.0 mi Calm Calm - N/A   Overcast
10:35 PM 8.6 °F 5.0 °F 85% 30.17 in 10.0 mi Calm Calm - N/A   Mostly Cloudy
10:55 PM 8.6 °F 6.8 °F 92% 30.17 in 10.0 mi Calm Calm - N/A   Mostly Cloudy
11:15 PM 10.4 °F 5.0 °F 79% 30.16 in 10.0 mi Calm Calm - N/A   Overcast
11:35 PM 8.6 °F 6.8 °F 92% 30.16 in 9.0 mi Calm Calm - N/A   Overcast
11:55 PM 8.6 °F 6.8 °F 92% 30.15 in 10.0 mi Calm Calm - N/A   Overcast